Temp
31 31 31 33 34 33 32 31 31 33 33 32 32 32 33 34 33 32 31 30 29 28 27 26 25 24 24 24 22 21 20 19 19 18 18 20 19 19 18 18 18 18 18 18
32 31 33 34 32 31 32 31 32 33 33 33 33 32 34 34 34 33 32 31 30 29 28 27 25 25 24 24 22 21 20 19 18 18 18 19 19 19 19 19 18 18 18 18
31 33 32 32 31 31 32 32 32 31 32 34 33 33 33 34 33 33 32 32 31 30 29 28 26 25 24 23 22 21 20 19 18 19 19 19 18 19 19 18 18 18 18 18
32 33 32 31 31 32 32 34 32 31 31 31 34 32 32 33 34 34 34 33 32 31 30 29 27 26 25 24 22 21 19 19 18 19 20 19 18 19 19 19 19 19 18 18
32 31 31 31 32 33 32 33 32 32 32 33 34 33 32 34 34 34 35 34 33 32 31 30 28 27 26 25 23 22 20 19 19 18 19 19 18 18 19 19 20 19 18 18
32 32 32 32 33 33 33 32 32 33 34 32 33 33 33 33 33 34 34 34 33 32 31 30 29 27 26 26 24 23 20 19 19 19 20 19 19 18 18 19 19 18 19 18
32 32 33 32 32 33 32 32 32 32 32 32 34 33 34 34 34 34 34 33 33 32 31 30 29 28 27 26 25 23 21 19 19 19 18 18 18 18 18 18 18 18 18 19
32 31 33 33 32 33 33 33 32 30 32 32 34 32 33 34 34 34 33 33 32 32 32 31 29 28 27 26 25 23 21 20 19 19 19 19 18 18 18 18 19 19 18 19
32 32 33 33 34 33 33 32 34 33 34 33 34 34 35 35 35 35 34 33 32 32 32 31 30 29 28 27 26 23 22 20 20 20 19 18 18 18 19 19 18 18 19 20
32 30 33 33 33 33 33 34 32 33 30 30 32 31 33 34 34 34 34 33 32 31 31 31 31 29 28 27 26 24 23 21 21 21 20 19 19 19 19 19 19 19 19 19
32 31 32 33 32 32 32 32 32 33 33 31 31 31 32 33 33 32 32 31 30 29 29 30 30 30 29 28 27 25 24 23 21 21 21 20 19 19 18 19 19 18 19 19
31 30 30 32 34 34 33 32 32 31 31 32 31 31 34 34 33 31 29 28 27 27 27 28 29 29 29 28 27 26 25 24 22 22 21 20 20 19 19 19 19 18 18 18
30 30 29 31 33 34 32 32 32 32 32 30 30 32 33 31 30 29 28 27 26 25 25 25 25 27 27 27 27 26 25 24 24 22 22 21 21 20 20 19 19 18 18 18
25 29 29 29 30 31 30 30 31 31 30 30 31 32 32 28 28 28 27 25 25 24 24 23 23 22 22 24 24 25 24 24 24 23 23 22 21 21 20 20 19 19 19 19
27 27 28 29 29 29 29 29 29 29 30 29 29 30 31 31 28 26 25 24 24 23 22 22 22 21 21 21 21 22 22 22 23 22 22 22 21 20 20 20 20 19 19 20
28 26 26 26 28 28 28 28 29 29 29 29 29 29 29 28 26 25 24 23 22 22 21 21 21 21 21 20 20 21 21 21 21 21 21 21 21 20 20 20 19 20 20 20
26 26 26 26 28 27 26 28 28 28 28 28 26 26 25 25 24 23 22 22 21 20 20 20 20 20 20 20 20 18 20 20 20 20 20 20 20 19 19 19 19 19 20 20
25 25 25 25 26 24 27 27 26 26 26 27 25 25 24 23 23 23 21 20 20 20 19 19 19 19 19 20 19 19 19 19 20 20 20 19 19 19 19 19 19 19 19 19
26 25 25 24 25 27 27 25 25 24 24 26 24 24 23 22 22 23 19 19 19 19 19 19 19 19 19 19 19 18 19 19 19 23 19 19 19 19 19 19 19 19 19 19
26 24 23 24 23 23 24 23 23 24 23 22 22 22 21 21 22 23 21 20 19 19 19 19 18 18 19 18 18 18 19 19 19 19 20 18 19 19 19 19 19 19 19 19
23 22 23 24 24 25 23 22 22 21 21 21 21 20 20 21 20 20 19 19 19 18 18 18 18 18 18 18 18 17 18 18 18 17 18 18 19 18 19 18 19 19 19 19
22 22 23 24 22 21 21 21 20 21 20 20 20 19 19 19 19 19 19 19 18 18 18 18 18 18 18 18 17 17 17 17 16 16 16 18 18 19 18 18 18 18 18 18
21 22 22 22 23 22 21 20 20 20 19 19 19 19 18 18 18 17 18 18 17 17 17 16 17 17 17 17 17 17 16 16 16 16 16 16 18 18 19 19 18 17 18 18
22 21 20 20 22 21 20 20 18 18 18 17 17 17 17 17 16 16 16 17 17 17 16 15 16 16 16 16 16 16 16 16 16 16 16 17 17 18 18 18 19 18 19 18
22 21 20 20 20 19 19 18 18 18 17 17 16 16 16 16 16 15 16 15 15 15 14 14 14 14 14 15 15 15 15 16 16 16 16 17 18 18 18 18 19 18 19 20
21 21 20 20 19 18 18 18 18 17 17 16 16 15 15 16 16 15 14 14 14 13 13 12 13 13 13 13 14 15 14 14 15 16 17 18 19 18 18 18 18 19 19 17
Height
1506 1505 1502 1490 1485 1490 1499 1501 1500 1490 1489 1495 1490 1487 1479 1478 1480 1487 1490 1493 1496 1503 1508 1513 1518 1521 1525 1529 1533 1537 1541 1543 1544 1547 1549 1555 1556 1559 1562 1564 1566 1569 1572 1574
1500 1505 1493 1489 1494 1500 1499 1499 1496 1486 1486 1488 1483 1483 1472 1471 1473 1477 1483 1486 1490 1495 1501 1508 1515 1518 1522 1525 1530 1534 1538 1539 1542 1546 1549 1552 1555 1556 1560 1563 1565 1567 1571 1572
1501 1489 1495 1497 1498 1500 1496 1496 1490 1496 1489 1478 1479 1474 1473 1470 1474 1476 1478 1479 1483 1487 1494 1501 1509 1514 1519 1523 1527 1531 1534 1535 1539 1544 1547 1548 1551 1555 1557 1560 1564 1566 1569 1572
1494 1490 1495 1498 1497 1493 1494 1480 1488 1495 1495 1498 1472 1495 1476 1472 1470 1469 1468 1473 1476 1482 1489 1495 1502 1509 1514 1519 1524 1528 1531 1533 1536 1539 1543 1544 1547 1551 1554 1558 1560 1564 1566 1569
1491 1493 1496 1498 1492 1487 1490 1486 1489 1489 1490 1483 1466 1479 1479 1467 1469 1466 1463 1464 1469 1477 1483 1489 1497 1504 1510 1515 1520 1524 1527 1529 1533 1535 1539 1540 1544 1547 1551 1554 1557 1560 1562 1565
1491 1489 1490 1488 1487 1488 1488 1489 1484 1477 1473 1486 1472 1477 1469 1471 1472 1467 1465 1466 1469 1474 1479 1486 1493 1500 1506 1510 1515 1520 1522 1524 1528 1531 1535 1538 1539 1543 1546 1548 1552 1554 1559 1561
1483 1482 1482 1488 1490 1486 1489 1489 1491 1492 1491 1485 1467 1480 1466 1465 1467 1465 1466 1468 1471 1474 1478 1484 1489 1495 1500 1504 1510 1515 1518 1521 1524 1528 1531 1534 1537 1539 1542 1544 1548 1551 1553 1557
1483 1493 1480 1480 1486 1480 1481 1480 1488 1507 1493 1486 1465 1483 1470 1462 1466 1466 1467 1469 1472 1474 1476 1481 1487 1492 1496 1501 1505 1510 1513 1516 1519 1523 1526 1530 1533 1536 1538 1540 1545 1548 1550 1553
1486 1485 1477 1479 1479 1480 1479 1490 1467 1479 1467 1478 1465 1459 1453 1458 1460 1462 1467 1470 1473 1475 1475 1479 1484 1489 1493 1497 1501 1505 1509 1512 1515 1519 1523 1526 1529 1532 1536 1538 1540 1543 1546 1549
1483 1495 1473 1475 1480 1478 1479 1472 1488 1475 1503 1505 1478 1483 1468 1460 1459 1462 1466 1471 1477 1477 1478 1477 1479 1484 1489 1494 1499 1502 1505 1507 1510 1516 1519 1522 1525 1527 1532 1535 1536 1540 1542 1545
1486 1487 1482 1475 1478 1475 1476 1481 1477 1472 1474 1491 1491 1481 1463 1465 1461 1468 1472 1480 1482 1482 1482 1479 1478 1480 1485 1490 1494 1498 1502 1505 1507 1511 1515 1518 1520 1523 1526 1530 1532 1535 1539 1540
1487 1490 1490 1478 1464 1464 1470 1477 1477 1485 1487 1474 1481 1479 1451 1461 1466 1473 1481 1485 1487 1487 1485 1482 1479 1481 1483 1487 1491 1494 1498 1501 1504 1508 1511 1514 1517 1519 1521 1523 1526 1529 1532 1536
1496 1493 1496 1483 1465 1458 1471 1473 1469 1473 1472 1483 1489 1476 1456 1469 1476 1479 1482 1487 1489 1490 1488 1487 1485 1484 1486 1487 1489 1492 1495 1498 1501 1503 1506 1509 1512 1514 1517 1519 1521 1523 1526 1529
1510 1496 1496 1499 1484 1478 1486 1481 1479 1479 1486 1480 1475 1467 1460 1478 1486 1483 1486 1488 1491 1492 1491 1491 1490 1489 1487 1487 1488 1489 1492 1494 1497 1499 1501 1503 1506 1509 1511 1514 1515 1517 1519 1522
1503 1500 1493 1488 1485 1485 1486 1486 1483 1486 1482 1489 1481 1478 1470 1468 1479 1487 1489 1491 1492 1494 1494 1493 1492 1490 1489 1488 1487 1487 1489 1490 1492 1493 1495 1497 1499 1503 1505 1508 1509 1512 1514 1516
1498 1505 1501 1499 1490 1486 1487 1482 1480 1479 1479 1479 1478 1479 1475 1478 1483 1488 1492 1492 1495 1497 1497 1495 1493 1491 1489 1488 1487 1486 1486 1487 1488 1489 1490 1492 1493 1495 1498 1502 1504 1507 1510 1513
1503 1501 1502 1501 1485 1488 1495 1477 1477 1476 1479 1479 1487 1486 1489 1489 1492 1493 1497 1496 1499 1499 1498 1496 1494 1492 1490 1488 1486 1483 1483 1482 1483 1485 1487 1487 1486 1487 1491 1495 1499 1500 1504 1507
1501 1504 1502 1502 1495 1511 1477 1481 1485 1487 1487 1483 1489 1490 1493 1498 1500 1496 1497 1501 1501 1499 1498 1496 1493 1491 1489 1487 1484 1482 1479 1478 1474 1479 1481 1484 1482 1481 1483 1487 1490 1494 1497 1500
1496 1500 1500 1503 1495 1482 1479 1488 1490 1494 1493 1488 1494 1497 1498 1501 1500 1493 1496 1500 1499 1498 1496 1493 1491 1489 1487 1485 1482 1479 1475 1471 1470 1461 1464 1478 1476 1476 1476 1478 1482 1486 1491 1494
1497 1501 1507 1499 1509 1510 1487 1495 1498 1496 1500 1497 1503 1503 1502 1502 1497 1488 1494 1497 1496 1495 1493 1491 1489 1486 1484 1481 1479 1476 1474 1471 1464 1460 1464 1471 1470 1469 1470 1472 1475 1480 1484 1488
1499 1505 1502 1494 1496 1489 1493 1500 1499 1508 1507 1505 1504 1503 1503 1501 1499 1496 1493 1492 1492 1490 1488 1486 1484 1481 1479 1477 1476 1475 1474 1472 1468 1466 1469 1463 1462 1463 1463 1467 1469 1473 1477 1482
1503 1502 1496 1489 1499 1507 1501 1502 1507 1504 1503 1503 1503 1501 1499 1497 1495 1492 1489 1486 1485 1483 1482 1481 1478 1476 1474 1473 1471 1468 1468 1466 1464 1462 1459 1456 1455 1456 1456 1459 1462 1465 1469 1473
1509 1500 1502 1501 1492 1498 1502 1504 1504 1505 1504 1502 1500 1498 1496 1494 1491 1488 1484 1481 1479 1477 1475 1473 1470 1468 1467 1467 1465 1462 1459 1458 1455 1456 1454 1451 1448 1449 1450 1455 1458 1460 1464 1468
1497 1502 1505 1506 1497 1499 1500 1503 1505 1504 1504 1502 1500 1497 1493 1489 1486 1483 1479 1475 1471 1468 1467 1466 1463 1460 1459 1459 1458 1457 1455 1452 1449 1447 1446 1445 1442 1442 1443 1447 1450 1451 1455 1457
1500 1501 1503 1502 1500 1500 1502 1503 1500 1500 1500 1497 1495 1491 1487 1482 1479 1475 1471 1467 1464 1461 1459 1457 1455 1453 1450 1450 1449 1449 1449 1448 1446 1444 1443 1441 1439 1436 1437 1439 1440 1443 1449 1452
1497 1497 1498 1498 1500 1502 1501 1500 1499 1496 1493 1491 1487 1483 1479 1475 1470 1467 1462 1459 1455 1451 1449 1446 1444 1443 1441 1441 1441 1441 1441 1442 1442 1440 1440 1437 1435 1433 1434 1434 1435 1435 1435 1436
Wind_Speed
14 12 12 13 3 12 7 10 10 7 6 9 11 14 11 11 14 11 14 17 20 21 22 22 22 22 22 21 22 22 22 20 20 17 18 14 15 14 14 16 17 10 12 11
11 11 14 8 6 7 11 12 12 3 4 10 12 13 14 5 8 11 16 17 19 21 24 25 24 24 24 23 23 23 23 23 22 17 16 17 15 15 16 15 13 14 13 11
13 5 6 7 9 13 13 14 11 9 12 20 8 8 3 6 2 6 10 15 19 22 23 27 27 26 24 25 25 24 25 24 22 20 16 18 16 15 17 18 18 15 16 14
10 10 5 8 10 8 14 6 3 8 12 11 11 7 10 5 7 10 13 15 16 20 23 26 28 28 27 26 24 24 24 25 22 23 19 23 20 20 17 20 16 17 18 17
5 5 8 9 8 6 12 4 9 11 13 15 15 7 10 8 2 7 5 3 15 17 23 25 27 28 27 25 25 25 25 27 25 24 22 20 21 19 18 17 18 21 18 18
11 5 6 8 5 7 10 8 16 18 14 12 9 8 11 10 6 8 6 3 6 13 19 22 24 25 25 26 26 26 28 28 27 25 24 23 21 20 18 22 21 19 19 17
15 15 15 9 12 10 10 13 12 7 8 4 10 6 3 9 6 8 5 4 6 11 16 21 25 26 26 27 28 27 29 28 27 26 24 24 22 19 20 21 22 20 22 22
10 8 7 8 13 10 13 15 10 4 8 2 7 3 6 7 4 5 10 5 4 8 14 18 23 25 26 27 28 30 29 29 28 27 27 24 22 20 18 22 20 21 19 23
5 4 6 6 10 7 7 8 12 11 14 8 9 9 10 9 8 8 11 10 6 4 7 14 19 23 25 27 29 30 30 29 28 27 25 24 23 21 18 20 22 19 20 20
4 10 8 7 6 14 14 14 10 9 9 9 2 8 5 10 6 7 8 12 10 8 3 11 17 21 23 25 26 26 28 30 29 27 25 24 24 23 21 19 23 23 20 23
12 10 11 7 13 15 10 13 12 13 9 12 12 3 4 5 9 7 11 10 11 12 11 7 13 18 21 21 24 26 27 28 28 28 28 25 24 23 22 21 22 22 22 21
7 9 12 16 15 10 9 13 16 13 13 12 8 16 13 5 13 11 12 9 9 11 13 12 3 11 14 20 21 24 25 27 27 28 30 27 25 25 24 24 22 23 25 25
11 7 10 12 15 20 7 12 8 12 15 17 14 12 12 11 8 9 10 10 10 12 13 13 11 4 8 14 18 21 22 25 26 27 28 28 27 26 25 24 23 22 23 26
6 13 15 13 17 15 13 13 14 15 12 15 15 19 6 12 7 8 10 10 11 12 13 13 12 10 5 4 11 16 20 22 24 26 29 30 30 28 27 27 27 26 24 24
8 12 13 14 16 16 18 18 18 19 19 19 19 22 21 20 8 8 8 10 11 12 13 13 12 11 9 6 5 10 16 19 22 27 29 31 34 32 30 30 30 28 26 24
7 11 9 15 16 18 16 16 17 17 17 18 18 17 13 16 10 8 12 11 11 12 13 13 13 12 11 10 7 5 11 15 19 24 29 30 31 36 35 35 35 31 27 25
11 11 10 12 12 8 14 8 8 8 8 10 10 10 13 13 13 9 9 9 10 12 13 13 13 13 12 11 11 10 8 12 16 21 25 30 33 35 36 36 34 35 31 27
11 7 8 11 11 14 6 3 6 6 11 11 5 12 9 10 13 15 3 7 10 12 13 13 13 14 14 12 13 12 10 8 11 16 24 29 33 34 33 34 36 35 34 32
5 7 8 9 10 13 12 13 6 9 10 8 7 9 10 13 18 16 7 8 13 14 15 15 15 15 15 14 13 13 13 15 19 39 31 32 32 31 31 33 35 34 33 31
8 4 7 10 12 10 5 7 5 10 12 11 8 11 14 17 12 2 14 17 19 19 19 19 18 18 16 16 15 13 11 11 14 13 25 32 27 31 32 33 34 33 34 33
7 8 11 11 12 10 10 8 8 10 6 13 14 14 17 14 19 26 29 26 24 25 24 24 23 22 20 18 16 14 13 11 12 12 23 25 23 27 29 30 31 33 33 30
6 6 9 10 6 13 11 7 6 14 17 19 21 21 21 24 27 29 30 30 29 29 29 28 28 26 23 21 19 19 16 15 13 16 15 17 21 26 29 28 32 33 32 32
7 5 7 7 9 10 8 6 11 13 17 22 23 25 26 27 29 31 33 33 33 33 31 30 29 29 27 24 22 22 22 19 19 16 16 16 22 23 26 26 28 30 28 26
5 10 6 8 2 4 7 10 10 16 21 24 26 28 29 29 31 33 35 35 35 33 30 29 29 30 30 28 26 26 23 21 21 20 17 16 16 23 23 26 29 31 31 29
10 10 8 12 15 12 13 14 17 21 26 25 27 29 30 30 33 33 34 33 36 34 35 32 33 32 33 30 29 27 25 22 21 20 18 17 16 17 22 27 30 30 31 30
11 8 9 9 15 14 21 22 24 29 29 27 28 28 30 32 35 35 36 35 35 35 33 33 30 31 30 30 30 30 29 24 21 20 18 17 18 21 18 26 27 28 30 22
Wind_Direction
200 235 234 240 304 2 317 273 285 288 48 292 303 297 287 265 186 215 221 204 195 203 193 192 192 191 191 195 197 200 205 201 210 201 181 196 201 199 188 200 180 190 190 214
220 227 254 296 329 269 267 263 265 310 259 300 293 296 269 279 237 202 205 224 212 197 197 193 195 196 195 195 198 200 204 212 206 208 193 209 201 202 199 204 204 197 197 209
253 309 5 300 250 247 247 260 284 332 318 281 250 278 153 140 186 204 229 219 214 207 201 193 198 200 199 198 199 201 201 211 207 200 210 205 203 200 196 204 200 210 197 206
262 254 216 243 248 244 264 218 312 285 286 312 305 295 122 158 205 206 216 203 218 206 204 198 199 203 202 201 201 200 200 204 206 198 212 219 210 198 210 204 205 208 205 200
106 226 213 242 251 237 273 21 291 284 274 277 269 246 128 186 33 348 350 236 184 198 201 203 200 203 207 202 203 200 202 203 205 209 200 225 215 209 207 207 207 208 218 205
277 226 244 268 250 249 274 280 260 244 248 255 80 293 159 107 27 12 13 174 168 184 196 199 198 202 206 205 202 204 206 208 208 213 212 212 226 219 212 208 208 212 207 219
197 215 207 229 247 211 230 253 263 226 243 108 90 283 101 98 48 16 49 136 169 172 189 189 194 198 203 205 203 204 206 205 208 212 215 214 218 221 219 219 216 210 211 203
281 159 174 179 233 262 202 250 295 316 312 26 167 246 93 81 147 38 79 80 158 188 182 192 197 201 204 204 204 204 207 203 208 210 218 218 216 217 225 218 214 219 225 213
325 156 126 210 203 249 174 244 273 313 288 240 256 129 197 149 193 118 87 72 98 211 226 199 199 205 206 207 206 206 206 207 209 211 214 216 214 213 223 225 216 216 218 216
345 287 182 116 235 238 263 312 285 242 260 286 54 278 201 185 120 56 63 62 44 42 340 243 208 207 210 211 210 210 206 209 207 206 210 213 213 217 211 221 224 216 221 215
307 287 278 187 229 257 180 232 224 253 288 308 291 60 34 263 87 59 55 36 29 27 14 328 230 215 210 212 212 213 211 212 209 208 211 210 211 212 212 214 217 219 218 222
352 309 291 289 298 284 270 287 291 282 277 263 296 298 103 57 78 66 62 37 34 24 19 13 296 221 216 214 214 213 215 214 213 211 211 212 212 209 211 210 215 216 217 213
1 271 290 272 247 219 216 273 247 280 283 282 289 279 106 74 63 71 63 32 34 26 25 26 25 360 230 229 223 220 219 219 217 212 213 212 212 211 212 215 211 218 219 216
303 267 264 281 307 323 305 290 278 288 281 286 281 298 321 112 311 11 37 28 22 27 28 25 27 23 345 273 238 228 225 223 220 218 215 214 212 213 211 214 214 215 225 221
253 278 290 289 298 297 290 284 280 273 276 276 288 294 299 313 69 18 23 17 21 21 20 20 20 19 17 9 275 245 233 229 224 221 217 215 215 214 214 214 224 219 224 225
280 284 279 280 277 262 275 284 279 279 277 273 277 278 359 7 24 14 4 19 13 9 10 12 14 14 9 2 350 306 251 242 234 228 221 218 216 217 215 212 218 229 224 226
282 283 285 280 292 305 273 305 307 290 314 312 297 34 17 350 359 9 358 11 8 1 357 356 357 359 357 354 345 337 314 251 244 239 233 225 218 221 219 217 217 224 225 224
253 255 274 274 287 271 76 80 341 304 307 289 342 333 6 347 323 311 132 359 350 349 343 343 344 341 338 334 337 337 332 257 225 246 243 234 228 223 219 218 219 224 226 221
261 281 278 278 262 294 307 43 14 353 307 344 347 323 332 326 315 305 60 330 326 327 324 323 326 326 325 323 328 335 332 314 275 249 290 243 230 226 222 219 219 222 224 222
273 201 272 284 296 291 73 67 8 320 275 41 344 322 323 320 301 291 340 318 311 308 308 309 310 310 311 317 325 320 318 310 303 245 262 255 231 227 224 223 220 221 222 222
223 230 264 272 272 282 55 2 313 266 1 329 315 313 309 303 302 300 300 300 299 301 301 299 298 297 298 302 307 308 297 287 284 269 245 242 238 233 232 227 222 219 221 218
269 284 277 276 258 267 41 323 344 336 317 320 313 306 301 298 297 297 296 295 295 293 294 292 287 283 284 286 293 295 295 294 286 283 277 255 245 240 237 227 219 213 212 217
267 244 321 314 320 334 326 297 324 311 311 312 313 310 304 301 298 298 297 294 292 290 288 288 284 279 275 273 274 280 285 292 295 292 290 283 252 248 242 231 226 219 213 212
240 239 267 306 343 303 308 312 324 319 321 311 305 297 298 299 294 291 293 294 294 291 287 289 286 281 274 270 267 266 273 281 289 298 295 296 293 253 245 235 230 217 217 219
303 316 281 279 272 306 305 277 312 312 311 310 305 303 300 297 291 287 287 292 288 289 285 278 276 275 273 269 264 261 262 268 275 286 292 287 279 275 251 237 232 227 224 226
261 282 272 294 291 300 294 299 304 306 304 301 297 299 296 293 296 294 289 288 287 285 283 279 272 270 267 263 260 259 257 260 264 271 280 278 274 270 275 248 235 256 243 256